K3RUP-1 Weather Reports


Display with metric or nautical units.
time (UTC)temp
F
wind
direction
speed
MPH
gust
MPH
rain 1hr
in
rain 24hr
in
rain mn
in
humidity
%
barometer
mb
20260505005743 62 149 0.0 0.0 0.00 0.00 0.00 72 1009.6
20260505005241 62 150 0.0 0.0 0.00 0.00 0.00 71 1009.5
20260505004738 63 142 0.0 0.0 0.00 0.00 0.00 70 1009.5
20260505004234 63 143 0.0 0.0 0.00 0.00 0.00 69 1009.8
20260505003731 63 143 0.0 0.0 0.00 0.00 0.00 68 1009.5
20260505003229 63 142 0.0 0.0 0.00 0.00 0.00 68 1009.5
20260505002725 64 143 0.0 0.0 0.00 0.00 0.00 67 1009.4
20260505002223 64 143 0.0 0.0 0.00 0.00 0.00 66 1009.3
20260505001720 64 142 0.0 0.0 0.00 0.00 0.00 65 1009.4
20260505001218 64 142 0.0 0.0 0.00 0.00 0.00 65 1009.6
20260505000714 65 142 0.0 0.0 0.00 0.00 0.00 64 1009.4
20260505000212 65 142 0.0 0.0 0.00 0.00 0.00 62 1009.4
20260504235708 65 142 0.0 0.0 0.00 0.00 0.00 62 1009.5
20260504235204 66 143 0.0 0.0 0.00 0.00 0.00 61 1009.7
20260504234702 66 130 0.0 0.0 0.00 0.00 0.00 60 1009.5
20260504234159 66 132 0.0 0.0 0.00 0.00 0.00 60 1009.5
20260504233655 67 143 0.0 0.0 0.00 0.00 0.00 58 1009.5
20260504233151 67 142 0.0 0.0 0.00 0.00 0.00 58 1009.5
20260504232649 67 136 0.0 0.0 0.00 0.00 0.00 57 1009.4
20260504232145 68 134 0.0 0.0 0.00 0.00 0.00 55 1009.5
20260504231642 68 138 0.0 0.0 0.00 0.00 0.00 55 1009.6
20260504231138 68 142 0.0 0.0 0.00 0.00 0.00 54 1009.6
20260504230635 68 134 0.0 0.0 0.00 0.00 0.00 52 1009.4
20260504230134 68 137 0.0 0.0 0.00 0.00 0.00 51 1009.3
20260504225632 69 126 0.0 0.0 0.00 0.00 0.00 50 1009.4
20260504225127 69 111 0.0 0.0 0.00 0.00 0.00 48 1009.5
20260504224624 69 148 0.0 0.0 0.00 0.00 0.00 47 1009.4
20260504224121 69 134 0.0 0.0 0.00 0.00 0.00 48 1009.5
20260504223618 70 139 0.0 0.0 0.00 0.00 0.00 48 1009.5
20260504223114 70 261 0.0 0.0 0.00 0.00 0.00 47 1009.4
20260504222611 70 146 0.0 0.0 0.00 0.00 0.00 47 1009.4
20260504222108 70 193 0.0 0.0 0.00 0.00 0.00 47 1009.5
20260504221605 70 141 0.0 0.0 0.00 0.00 0.00 48 1009.5
20260504221102 70 144 0.0 0.0 0.00 0.00 0.00 47 1009.3
20260504220558 71 111 0.0 1.0 0.00 0.00 0.00 47 1009.5
20260504220056 71 134 0.0 0.0 0.00 0.00 0.00 47 1009.3
20260504215552 71 136 0.0 0.0 0.00 0.00 0.00 47 1009.5
20260504215050 71 141 0.0 0.0 0.00 0.00 0.00 47 1009.4
20260504214545 72 138 0.0 0.0 0.00 0.00 0.00 46 1009.3
20260504214042 72 153 0.0 0.0 0.00 0.00 0.00 46 1009.4
20260504213538 72 144 0.0 0.0 0.00 0.00 0.00 44 1009.3
20260504213036 72 173 0.0 0.0 0.00 0.00 0.00 45 1009.5
20260504212531 73 129 0.0 0.0 0.00 0.00 0.00 45 1009.5
20260504212029 73 141 0.0 0.0 0.00 0.00 0.00 43 1009.4
20260504211526 73 135 0.0 0.0 0.00 0.00 0.00 43 1009.5
20260504211023 73 146 0.0 0.0 0.00 0.00 0.00 43 1009.4
20260504210520 74 139 0.0 1.0 0.00 0.00 0.00 41 1009.4
20260504210016 74 139 0.0 0.0 0.00 0.00 0.00 42 1009.5
20260504205515 74 144 0.0 0.0 0.00 0.00 0.00 40 1009.6
20260504205012 74 151 0.0 0.0 0.00 0.00 0.00 40 1009.7
20260504204510 75 161 0.0 1.0 0.00 0.00 0.00 39 1009.7
20260504204009 75 241 0.0 0.0 0.00 0.00 0.00 40 1009.7
20260504203506 75 124 0.0 0.0 0.00 0.00 0.00 40 1009.7
20260504203003 75 151 0.0 0.0 0.00 0.00 0.00 40 1009.7
20260504202459 75 113 0.0 0.0 0.00 0.00 0.00 40 1009.9
20260504201956 75 127 0.0 0.0 0.00 0.00 0.00 39 1009.9
20260504201453 76 174 0.0 0.0 0.00 0.00 0.00 39 1009.8
20260504200950 75 216 0.0 0.0 0.00 0.00 0.00 41 1010.0
20260504200447 75 108 0.0 0.0 0.00 0.00 0.00 39 1009.8
20260504195944 75 149 0.0 0.0 0.00 0.00 0.00 40 1009.9
20260504195439 75 117 0.0 0.0 0.00 0.00 0.00 37 1010.1
20260504194936 75 125 0.0 0.0 0.00 0.00 0.00 39 1010.1
20260504194432 75 193 1.0 3.0 0.00 0.00 0.00 38 1010.2
20260504193928 75 144 0.0 0.0 0.00 0.00 0.00 39 1010.5
20260504193426 75 156 0.0 0.0 0.00 0.00 0.00 39 1010.5
20260504192925 74 153 0.0 0.0 0.00 0.00 0.00 40 1010.4
20260504192421 74 118 0.0 0.0 0.00 0.00 0.00 38 1010.8
20260504191920 75 126 0.0 0.0 0.00 0.00 0.00 38 1010.6
20260504191418 75 140 0.0 0.0 0.00 0.00 0.00 38 1010.5
20260504190913 74 134 0.0 0.0 0.00 0.00 0.00 41 1010.7
20260504190409 75 141 0.0 0.0 0.00 0.00 0.00 38 1010.7
20260504185906 75 121 0.0 0.0 0.00 0.00 0.00 37 1011.0
20260504185403 75 124 0.0 0.0 0.00 0.00 0.00 39 1010.9
20260504184859 75 141 0.0 0.0 0.00 0.00 0.00 38 1011.4
20260504184355 75 146 0.0 0.0 0.00 0.00 0.00 40 1011.2
20260504183851 74 133 0.0 0.0 0.00 0.00 0.00 40 1011.4
20260504183349 74 123 0.0 0.0 0.00 0.00 0.00 39 1011.5
20260504182846 75 143 0.0 0.0 0.00 0.00 0.00 36 1011.4
20260504182343 75 145 0.0 0.0 0.00 0.00 0.00 39 1011.3
20260504181840 73 99 0.0 0.0 0.00 0.00 0.00 39 1011.7
20260504181337 74 124 0.0 0.0 0.00 0.00 0.00 37 1011.7
20260504180836 74 140 0.0 1.0 0.00 0.00 0.00 37 1011.6
20260504180334 75 205 0.0 0.0 0.00 0.00 0.00 39 1011.7
20260504175832 75 148 0.0 0.0 0.00 0.00 0.00 38 1012.0
20260504175328 74 132 0.0 0.0 0.00 0.00 0.00 38 1011.8
20260504174827 75 96 0.0 0.0 0.00 0.00 0.00 38 1011.8
20260504174324 73 141 0.0 0.0 0.00 0.00 0.00 40 1011.7
20260504173821 73 158 0.0 0.0 0.00 0.00 0.00 39 1011.9
20260504173317 73 94 0.0 0.0 0.00 0.00 0.00 39 1011.9
20260504172814 73 119 0.0 0.0 0.00 0.00 0.00 41 1012.2
20260504172311 73 145 0.0 0.0 0.00 0.00 0.00 42 1012.3
20260504171807 73 130 0.0 0.0 0.00 0.00 0.00 40 1012.2
20260504171304 73 137 0.0 0.0 0.00 0.00 0.00 41 1012.4
20260504170801 73 127 0.0 0.0 0.00 0.00 0.00 41 1012.2
20260504170258 73 136 0.0 0.0 0.00 0.00 0.00 42 1012.4
20260504160216 71 228 0.0 0.0 0.00 0.00 0.00 41 1012.9
20260504151145 68 129 0.0 0.0 0.00 0.00 0.00 43 1013.5
20260504150642 67 147 0.0 0.0 0.00 0.00 0.00 43 1013.4
20260504150139 67 80 0.0 0.0 0.00 0.00 0.00 45 1013.6
20260504141107 63 251 0.0 0.0 0.00 0.00 0.00 49 1013.9
20260504140604 62 141 0.0 0.0 0.00 0.00 0.00 50 1014.0
20260504130528 58 58 0.0 0.0 0.00 0.00 0.00 57 1014.3
20260504110415 51 142 0.0 0.0 0.00 0.00 0.00 76 1014.6
20260504100332 50 143 0.0 0.0 0.00 0.00 0.00 76 1014.6
20260504081726 49 146 0.0 0.0 0.00 0.00 0.00 75 1015.0
20260504081222 50 142 0.0 0.0 0.00 0.00 0.00 75 1014.9
20260504080719 49 142 0.0 0.0 0.00 0.00 0.00 73 1015.1
20260504080215 50 142 0.0 0.0 0.00 0.00 0.00 75 1014.9
20260504070143 49 141 0.0 0.0 0.00 0.00 0.00 78 1015.1
20260504060103 47 149 0.0 0.0 0.00 0.00 0.00 77 1015.3
20260504050532 45 153 0.0 0.0 0.00 0.00 0.00 78 1015.2
20260504045525 46 151 0.0 0.0 0.00 0.00 0.00 77 1015.2
20260504045021 45 151 0.0 0.0 0.00 0.00 0.00 76 1015.1
20260504044518 45 151 0.0 0.0 0.00 0.00 0.00 76 1015.3
20260504044015 45 151 0.0 0.0 0.00 0.00 0.00 75 1015.2
20260504043512 46 149 0.0 0.0 0.00 0.00 0.00 76 1015.1
20260504043010 46 150 0.0 0.0 0.00 0.00 0.00 76 1015.1
20260504042506 45 151 0.0 0.0 0.00 0.00 0.00 76 1015.3
20260504042003 45 147 0.0 0.0 0.00 0.00 0.00 77 1015.1
20260504041459 45 143 0.0 0.0 0.00 0.00 0.00 77 1015.2
20260504040955 45 143 0.0 0.0 0.00 0.00 0.00 77 1015.2
20260504040453 45 143 0.0 0.0 0.00 0.00 0.00 78 1015.3
20260504035949 45 149 0.0 0.0 0.00 0.00 0.00 78 1015.0
20260504035447 44 153 0.0 0.0 0.00 0.00 0.00 78 1014.9
20260504034943 44 152 0.0 0.0 0.00 0.00 0.00 78 1015.0
20260504034440 44 152 0.0 0.0 0.00 0.00 0.00 78 1014.9
20260504033937 44 148 0.0 0.0 0.00 0.00 0.00 78 1015.1
20260504033435 44 153 0.0 0.0 0.00 0.00 0.00 79 1014.9
20260504032932 44 153 0.0 0.0 0.00 0.00 0.00 79 1014.7
20260504032429 44 151 0.0 0.0 0.00 0.00 0.00 78 1014.8
20260504031926 45 150 0.0 0.0 0.00 0.00 0.00 79 1014.6
20260504031422 45 150 0.0 0.0 0.00 0.00 0.00 78 1014.8
20260504030919 45 150 0.0 0.0 0.00 0.00 0.00 78 1014.6
20260504030416 45 150 0.0 0.0 0.00 0.00 0.00 78 1014.6
20260504025912 45 150 0.0 0.0 0.00 0.00 0.00 77 1014.7
20260504025409 45 150 0.0 0.0 0.00 0.00 0.00 76 1014.7
20260504024906 45 149 0.0 0.0 0.00 0.00 0.00 77 1014.6
20260504024403 46 149 0.0 0.0 0.00 0.00 0.00 76 1014.6
20260504023900 46 150 0.0 0.0 0.00 0.00 0.00 76 1014.6
20260504023356 46 149 0.0 0.0 0.00 0.00 0.00 75 1014.7
20260504022852 46 150 0.0 0.0 0.00 0.00 0.00 75 1014.5
20260504022349 46 150 0.0 0.0 0.00 0.00 0.00 74 1014.6
20260504021845 46 150 0.0 0.0 0.00 0.00 0.00 74 1014.6
20260504021343 46 149 0.0 0.0 0.00 0.00 0.00 73 1014.6
20260504020840 47 149 0.0 0.0 0.00 0.00 0.00 73 1014.7
20260504020337 47 149 0.0 0.0 0.00 0.00 0.00 73 1014.5
20260504015833 47 150 0.0 0.0 0.00 0.00 0.00 73 1014.4
20260504015329 47 149 0.0 0.0 0.00 0.00 0.00 71 1014.4
20260504014825 47 149 0.0 0.0 0.00 0.00 0.00 70 1014.4
20260504014321 47 149 0.0 0.0 0.00 0.00 0.00 70 1014.6
20260504013819 48 148 0.0 0.0 0.00 0.00 0.00 70 1014.3
20260504013317 48 148 0.0 0.0 0.00 0.00 0.00 70 1014.4
20260504012813 48 148 0.0 0.0 0.00 0.00 0.00 69 1014.6
20260504012311 48 148 0.0 0.0 0.00 0.00 0.00 67 1014.3
20260504011808 49 148 0.0 0.0 0.00 0.00 0.00 67 1014.4
20260504011305 49 148 0.0 0.0 0.00 0.00 0.00 66 1014.2
20260504010800 49 148 0.0 0.0 0.00 0.00 0.00 65 1014.1
20260504010256 49 148 0.0 0.0 0.00 0.00 0.00 63 1014.2